Location: Dötzum
(52.0808°N, 9.8063°E)
Time: 06:17:05
(UTC+00:00)

Cosmos 2315 Rocket - Pass Details

Date: 27 May 2022
Orbit: 966 x 1002 km, 82.9° (Epoch: 26 June)

Event Time Altitude Azimuth Distance (km) Brightness Sun altitude
Exits shadow 00:18:31 21° 179° (S) 2,062 5.1 -15.5°
Maximum altitude 00:22:56 77° 96° (E) 1,032 4.1 -15.3°
Drops below altitude 10° 00:29:20 10° 13° (NNE) 2,788 7.8 -15.0°
Sets 00:31:53 0° 12° (NNE) 3,741 8.9 -14.9°
